SCP
2 2 2 3 3 3 3 3 3 3 4 4 3 3 2 2 2 2 1 1 1 1 1 0 0 0 0 0 0 0 0 0 0 0 0 0 0 0 0 0 0 0 0
2 2 2 3 3 3 3 3 3 3 4 4 3 3 3 2 2 2 2 1 1 1 0 0 0 0 0 0 0 0 0 0 0 0 0 0 0 0 0 0 0 0 0
2 2 2 2 3 3 3 3 3 3 3 3 3 2 2 2 2 2 2 1 1 1 0 0 0 0 0 0 0 0 0 0 0 0 0 0 0 0 0 0 0 0 0
1 1 1 2 2 2 2 2 2 3 3 3 3 2 2 2 2 2 2 1 1 1 0 0 0 0 0 0 0 0 0 0 0 0 0 0 0 0 0 0 0 0 0
1 1 1 1 2 2 2 2 2 3 3 3 2 2 2 2 2 2 2 2 1 1 0 0 0 0 0 0 1 1 0 0 0 0 0 0 0 0 0 0 0 0 0
1 1 1 1 1 2 2 2 2 3 3 2 2 2 2 2 2 2 2 1 1 1 0 0 0 0 0 1 1 1 1 0 0 0 0 0 0 0 0 0 0 0 0
1 1 1 1 1 1 2 2 2 2 2 2 2 2 2 2 1 1 2 1 1 1 0 0 0 0 0 0 1 1 0 0 0 0 0 0 0 0 0 0 0 0 0
2 2 1 1 1 1 1 1 1 2 2 2 2 1 1 2 2 2 2 1 1 1 1 1 1 0 0 0 0 0 0 0 0 0 0 0 0 0 0 0 0 0 0
3 3 2 2 1 1 1 1 1 1 1 1 1 1 1 1 2 2 1 1 1 1 1 1 1 1 1 1 1 0 0 0 0 0 0 0 0 0 0 0 0 0 0
3 3 2 2 2 1 1 1 1 1 1 1 1 1 1 1 2 2 1 1 1 1 1 1 1 1 1 1 1 1 0 1 1 1 1 1 1 1 0 0 0 0 0
2 2 2 2 1 1 1 1 2 1 1 1 1 1 1 1 1 1 1 1 1 1 1 1 1 1 1 1 1 1 1 1 1 1 1 1 1 1 1 1 1 1 1
2 2 2 2 1 1 1 1 2 2 2 1 1 1 1 1 1 1 1 1 1 1 1 1 1 1 1 2 1 1 1 1 1 1 1 1 1 2 2 2 1 1 1
3 2 2 2 2 1 1 1 1 2 2 2 2 1 1 1 1 1 1 2 1 1 1 1 1 1 1 2 1 1 1 1 2 2 2 2 2 2 2 2 2 2 2
3 3 3 2 2 1 1 1 2 2 2 2 3 2 2 2 2 2 2 2 2 2 2 2 1 1 1 1 2 2 2 2 2 2 2 2 2 2 2 2 2 2 3
3 3 3 3 2 2 2 2 3 3 3 3 3 2 2 2 2 2 2 2 2 2 2 2 2 1 1 1 1 2 2 2 2 2 2 2 1 1 1 1 2 2 3
3 4 4 4 3 3 3 4 4 4 4 3 2 2 2 2 2 2 2 2 2 2 2 2 2 1 1 1 1 1 2 2 2 2 2 2 1 1 1 1 1 1 1
4 4 4 4 4 4 4 4 5 5 4 3 2 2 2 2 2 2 2 2 2 2 1 1 1 1 0 0 0 0 1 1 1 2 2 1 1 1 1 0 0 0 0
4 4 4 4 4 4 4 4 4 4 3 2 2 2 2 2 1 1 2 2 1 1 1 1 1 0 0 0 0 0 0 1 1 1 1 1 1 1 1 1 0 1 1
4 4 4 4 4 4 4 4 4 3 2 2 2 2 1 1 1 1 1 1 1 1 1 1 0 0 0 0 0 0 0 1 1 1 1 1 1 0 0 0 0 0 1
4 4 4 4 4 4 4 3 3 2 1 1 1 1 1 1 1 1 1 1 1 1 1 0 0 0 0 0 0 0 0 1 1 1 1 0 0 0 0 0 0 0 0
4 4 4 4 4 4 3 2 2 1 1 1 0 0 0 0 0 0 0 0 0 0 0 0 0 0 0 0 0 0 0 1 1 1 0 0 0 0 0 0 0 0 0
4 4 5 5 4 4 3 2 1 0 0 0 0 0 0 0 0 0 0 0 0 0 0 0 0 0 0 0 0 0 0 0 0 0 0 0 0 0 0 0 0 0 0
3 4 4 4 3 3 3 2 1 0 0 0 0 0 0 0 0 0 0 0 0 0 0 0 0 0 0 0 0 0 0 0 0 0 0 0 0 0 0 0 0 0 0
2 2 2 2 2 2 1 1 0 0 0 0 0 0 0 0 0 0 0 0 0 0 0 0 0 0 0 0 0 0 0 0 0 0 0 0 0 0 0 0 0 0 0
0 1 0 0 0 0 0 0 0 0 0 0 0 0 0 0 0 0 0 0 0 0 0 0 0 0 0 0 0 0 0 0 0 0 0 0 0 0 0 0 0 0 0
0 0 0 0 0 0 0 0 0 0 0 0 0 0 0 0 0 0 0 0 0 0 0 0 0 0 0 0 0 0 0 0 0 0 0 0 0 0 0 0 0 0 0
Wind_Speed
8 8 8 9 10 11 12 12 11 11 10 8 8 7 7 6 5 5 5 5 4 5 3 2 4 3 2 1 3 3 4 3 2 3 3 4 4 4 4 3 3 5 5
9 9 8 9 10 12 12 12 12 12 11 8 7 6 6 5 5 4 5 5 5 5 4 2 3 3 2 2 2 2 2 2 2 3 3 4 4 5 4 4 4 4 5
8 8 8 9 10 11 12 12 12 12 11 10 7 7 6 5 5 5 5 5 5 4 3 3 3 2 4 3 2 3 4 3 3 2 3 2 2 3 4 4 3 3 3
7 7 7 9 10 11 11 12 12 12 11 11 10 11 8 7 6 6 5 6 5 5 4 4 3 3 2 2 4 3 2 3 3 3 2 3 5 3 2 5 5 5 4
7 7 6 8 8 10 11 11 11 12 12 11 11 11 8 6 6 6 7 6 6 5 5 4 4 3 2 2 1 1 3 3 4 3 3 3 3 5 4 2 3 4 5
7 7 7 8 8 9 10 10 11 11 12 12 12 11 10 8 8 8 8 7 6 6 6 5 4 4 2 3 2 2 3 2 2 3 3 3 3 4 4 4 4 3 3
8 9 9 9 10 11 11 11 12 12 12 13 12 11 10 10 10 9 8 7 6 6 6 6 5 4 3 3 3 3 2 2 2 3 3 3 3 3 4 5 4 3 3
10 10 10 10 10 11 12 12 13 13 13 12 11 10 10 9 8 9 7 7 5 5 6 6 6 5 5 5 4 4 4 3 3 3 2 3 3 3 3 4 4 5 4
10 11 11 11 11 11 11 11 12 13 13 12 11 10 10 9 7 8 8 7 5 5 7 7 6 6 6 5 5 3 3 4 5 5 5 5 2 3 3 3 4 5 6
11 11 11 11 11 11 11 11 12 12 12 12 11 10 11 9 8 8 7 6 5 5 6 7 6 6 6 6 6 5 4 5 4 4 3 4 5 3 4 4 4 5 6
13 12 11 11 11 12 12 12 12 12 11 11 10 10 10 10 9 7 7 6 6 6 6 6 6 6 6 6 6 6 5 6 6 6 6 6 5 4 4 4 5 5 5
12 12 12 12 12 12 12 12 12 12 12 11 10 10 9 9 8 8 7 6 6 6 6 6 6 6 6 6 7 7 7 7 6 6 6 6 5 5 6 4 5 5 4
13 13 13 12 12 12 12 13 12 12 12 11 11 10 10 9 9 7 6 5 5 4 4 4 5 5 5 5 5 6 6 6 5 5 5 5 5 5 5 5 5 5 5
13 13 12 11 11 11 11 11 12 12 11 11 11 10 9 8 7 6 6 5 4 4 4 3 3 2 3 3 3 4 4 3 3 2 2 2 3 4 5 5 5 6 6
14 13 13 11 11 11 11 10 10 10 10 10 9 9 7 7 7 6 6 5 5 4 4 3 3 2 1 1 0 1 2 2 2 1 1 2 3 5 3 3 3 4 5
14 14 13 12 11 11 10 10 9 9 9 9 9 8 7 7 7 6 6 6 5 5 5 4 4 3 4 6 5 2 1 1 1 2 2 2 3 3 2 3 4 5 5
13 13 12 11 10 10 9 9 9 9 9 9 9 9 9 8 8 8 8 8 7 7 6 6 6 7 8 9 7 5 3 3 3 3 2 2 4 3 3 1 2 3 3
11 11 10 10 9 9 10 10 10 9 9 10 10 9 9 10 9 9 9 8 7 8 8 8 8 9 10 10 8 5 4 5 5 4 4 4 4 7 7 6 5 5 3
9 9 9 10 10 11 11 12 11 11 11 10 10 10 10 10 10 10 9 9 8 9 9 9 9 9 9 10 9 6 4 4 4 4 5 4 5 8 8 6 6 6 5
9 10 11 12 11 11 12 14 13 13 12 11 11 11 10 11 10 10 10 9 8 9 9 9 8 9 9 10 10 8 2 3 2 2 3 7 7 7 8 7 6 7 7
12 12 12 12 12 12 13 15 14 13 12 12 12 12 11 11 11 10 9 9 8 8 8 8 8 8 8 9 10 10 5 4 3 2 2 5 6 5 6 7 7 6 9
13 14 13 13 12 12 14 15 14 13 13 13 13 12 11 10 10 10 9 8 8 8 7 6 6 6 6 7 7 8 8 8 5 5 5 5 5 6 8 7 5 7 10
14 14 15 15 13 12 13 15 13 13 13 13 13 12 12 10 9 9 8 7 5 4 4 4 4 4 4 6 5 3 2 3 4 5 4 4 6 9 8 6 7 9 8
14 15 16 16 14 13 13 13 12 12 13 13 12 11 10 10 8 5 5 5 4 3 3 3 2 2 3 5 5 4 2 2 4 6 4 10 12 10 8 7 6 5 6
13 14 15 15 14 12 12 11 11 11 12 12 10 10 10 9 8 9 9 8 10 9 6 5 5 5 6 8 9 8 8 9 8 10 9 7 6 6 6 6 6 6 7
13 14 15 15 13 12 12 11 10 10 10 9 8 7 7 7 7 8 9 15 12 13 14 13 10 9 9 6 5 5 5 6 9 10 7 6 6 7 7 8 7 7 7
Wind_Direction
181 180 178 178 179 182 180 176 176 170 168 166 168 166 162 164 160 163 158 169 176 169 202 186 162 227 191 211 193 203 173 195 190 204 182 177 185 180 182 204 203 181 189
179 179 177 178 181 181 180 178 177 175 174 169 166 164 156 163 154 154 150 170 175 179 181 200 198 191 173 191 207 232 243 162 198 245 216 192 178 195 186 188 199 193 191
185 181 183 187 185 184 185 180 176 174 175 165 158 153 152 160 159 163 164 177 180 183 175 185 215 189 219 171 205 212 228 216 193 254 279 264 216 171 173 199 194 202 212
182 181 185 190 191 187 182 178 174 172 171 168 173 173 177 175 171 172 161 169 181 183 178 183 189 215 222 158 208 187 233 248 222 186 260 313 347 294 182 187 187 194 214
176 175 179 181 180 177 174 170 169 169 170 177 178 180 182 174 165 167 160 178 175 188 188 187 186 198 213 177 239 168 249 243 261 237 214 220 232 261 280 240 192 196 203
167 163 166 164 164 168 168 167 165 166 171 178 181 185 180 174 167 174 171 186 177 186 185 189 190 200 195 177 199 207 200 260 293 284 258 242 244 245 255 257 237 221 193
166 162 165 165 164 166 167 169 169 169 176 181 185 185 183 180 181 184 182 191 181 182 178 186 191 198 193 199 203 208 230 211 224 249 259 268 275 292 285 282 276 264 217
168 166 166 165 167 168 169 171 174 174 178 182 184 185 186 190 188 192 188 189 192 182 169 185 193 199 200 203 201 219 205 208 223 234 266 264 255 268 272 283 286 267 243
168 168 166 167 168 170 170 174 177 177 179 182 182 185 190 197 191 183 195 190 192 184 179 190 197 201 203 209 211 223 217 209 226 218 207 236 229 242 258 267 277 284 282
171 169 167 167 167 169 170 172 173 174 176 179 184 185 189 190 189 195 193 191 192 194 192 197 201 203 202 205 218 219 209 222 228 248 256 251 248 240 244 250 254 264 277
171 169 168 167 168 168 169 171 173 174 177 181 186 187 186 185 187 194 195 195 202 197 204 206 208 209 209 207 213 232 217 225 228 229 229 233 259 258 253 245 249 251 258
169 169 167 167 170 171 171 173 175 177 179 181 183 187 187 185 188 194 199 200 207 211 209 213 214 217 216 214 217 225 223 225 230 233 237 241 235 236 261 263 258 258 264
170 169 169 172 174 174 174 173 177 178 179 179 182 184 187 185 190 194 194 195 200 209 212 213 214 217 220 219 225 229 229 231 233 235 237 244 248 246 252 259 265 265 257
172 174 173 175 174 174 174 175 177 177 178 178 180 180 183 182 183 182 178 180 185 188 186 187 193 205 218 222 224 221 225 223 220 225 235 251 257 259 264 258 263 271 274
175 176 174 172 174 173 173 175 175 174 175 176 175 170 168 167 166 162 161 163 164 163 155 150 144 151 164 26 321 215 200 191 183 154 114 72 58 35 352 313 298 283 270
176 173 170 168 170 171 171 168 168 164 165 166 161 151 150 152 150 149 144 138 132 125 122 118 111 92 68 54 45 16 70 85 103 100 95 117 101 81 78 19 349 328 295
173 169 166 163 161 160 159 156 150 146 148 143 137 135 136 132 130 129 126 123 118 112 106 99 92 83 63 50 54 48 65 72 64 62 44 25 52 22 354 325 251 269 269
164 158 153 148 145 141 136 131 130 129 126 123 123 124 125 119 115 112 110 109 107 103 100 95 91 86 66 49 51 44 81 74 67 58 47 38 34 27 359 336 327 312 300
146 140 136 132 129 129 129 125 121 116 112 111 113 115 114 112 111 109 107 105 105 102 101 95 92 87 71 46 37 11 80 81 71 60 52 37 46 39 356 324 320 314 307
119 119 118 117 116 118 119 116 111 107 105 104 103 101 102 106 107 107 107 105 104 103 101 94 88 84 76 53 35 6 37 66 61 82 106 78 47 28 355 329 321 313 319
111 112 110 108 110 114 113 108 105 103 104 105 104 102 102 104 105 105 106 110 108 104 101 101 94 85 75 70 44 19 12 8 355 351 344 73 55 7 335 311 311 327 313
112 110 105 101 102 107 109 105 103 106 107 106 104 103 105 105 105 105 105 108 115 119 116 112 109 104 91 67 63 46 33 355 343 336 348 33 14 324 300 296 325 303 286
107 106 104 98 95 97 102 103 106 110 109 106 103 103 101 100 106 112 118 123 126 122 120 121 113 101 97 114 126 122 94 352 330 346 16 319 286 286 271 231 257 276 282
106 105 101 98 95 94 94 97 103 105 105 105 105 105 105 102 93 89 92 87 78 82 86 73 65 75 75 37 19 358 353 269 301 327 283 233 237 250 275 286 268 291 323
102 101 100 100 98 96 96 99 103 105 106 107 108 108 102 96 88 70 46 53 50 35 27 33 30 20 47 45 22 360 1 351 354 323 300 309 324 323 330 331 333 327 324
105 106 105 105 103 100 96 95 98 102 108 110 110 109 110 111 113 108 91 59 68 70 64 50 42 69 64 56 32 17 350 319 311 302 314 336 338 336 335 331 329 329 330